[[{"header":{"parameterUnit":"m.s-1","parameterCategory":1,"la1":30.2991,"la2":30.254,"lo1":-89.0895,"lo2":-89.0444,"dy":0.0017,"dx":0.0017,"nx":28,"ny":28,"refTime":"2024-12-06T03:00:00:Z","depth":0,"parameterNumber":2,"parameterNumberName":"U-component_of_WINDS"},"data":[0,0,0,0,0,0,0,0,0,0,0,0,0,0,0,0,0,0,0,0,0,0,0,0,0,0,0,0,0,0,0,0,0,0,0,0,0,0,0,0,0,0,0,0,0,0,0,0,0,0,0,0,0,0,0,0,0,0,-2.2072,-2.2073,0,-2.2118,-2.2118,-2.2119,-2.2067,-2.2065,-2.2063,-2.2061,-2.2108,-2.2111,-2.2115,0,0,0,0,0,0,0,0,0,0,0,0,0,-2.194,-2.1942,-2.2072,-2.2073,-2.2073,-2.2118,-2.2118,-2.2119,-2.2067,-2.2065,-2.2062,-2.206,-2.2107,-2.2111,-2.2115,0,0,0,0,0,0,0,0,0,0,0,0,0,-2.1992,-2.1943,-2.2072,-2.2053,-2.2051,-2.2118,-2.2118,-2.2119,-2.2067,-2.2065,-2.2062,-2.2059,-2.2106,-2.2111,-2.2115,-2.2203,0,0,-2.213,-2.2132,0,0,0,0,0,0,0,0,-2.199,-2.1997,-2.2055,-2.2054,-2.2053,-2.2083,-2.2089,-2.2147,-2.2068,-2.2061,-2.2061,-2.2057,-2.2103,-2.2107,-2.2122,-2.2205,-2.2207,-2.213,-2.2133,-2.2135,-2.2136,0,0,0,0,0,0,0,-2.1986,-2.1995,-2.209,-2.2056,-2.2054,-2.2042,-2.2046,-2.21,-2.2098,-2.2062,-2.2058,-2.2064,-2.2101,-2.2118,-2.2123,-2.2208,-2.213,-2.2134,-2.2137,-2.2139,-2.2365,-2.2368,0,0,0,0,0,0,-2.1984,-2.1992,-2.2089,-2.2091,-2.2013,-2.2046,-2.2051,-2.2077,-2.2097,-2.2098,-2.2067,-2.2062,-2.2112,-2.2118,-2.2125,-2.2229,-2.2135,-2.2139,-2.2142,-2.2362,-2.2366,-2.237,0,0,0,0,0,0,-2.1982,-2.1994,-2.2087,-2.2041,-2.2052,-2.2052,-2.2081,-2.2079,-2.2096,-2.2101,-2.21,-2.2084,-2.211,-2.2118,-2.2184,-2.223,-2.2141,-2.2145,-2.2358,-2.2363,-2.2368,-2.2439,0,0,0,0,0,0,-2.1978,-2.1993,-2.2026,-2.2042,-2.2054,-2.2146,-2.2084,-2.2082,-2.2104,-2.2098,-2.2117,-2.2118,-2.2108,-2.2177,-2.2189,-2.2235,-2.2149,-2.2354,-2.2361,-2.2366,-2.2433,-2.2446,-2.2457,0,0,0,0,0,-2.1974,-2.2045,-2.2028,-2.204,-2.2096,-2.2148,-2.2156,-2.2143,-2.2108,-2.2141,-2.2145,-2.2117,-2.2223,-2.2185,-2.2197,-2.2245,-2.2351,-2.2359,-2.2366,-2.2427,-2.2443,-2.2457,0,0,0,0,0,0,-2.2035,-2.2047,-2.2028,-2.2107,-2.2127,-2.214,-2.2182,-2.216,-2.2191,-2.2184,-2.2167,-2.2172,-2.2242,-2.225,-2.2207,-2.2331,-2.2281,-2.2291,-2.2324,-2.2339,-2.2351,-2.2349,-2.2153,0,0,0,0,0,-2.2057,-2.2099,-2.2106,-2.2175,-2.2186,-2.2182,-2.2204,-2.2193,-2.2213,-2.2221,-2.2229,-2.2251,-2.2288,-2.2314,-2.2349,-2.2433,-2.2437,-2.2472,-2.2485,-2.2494,-2.2504,-2.2549,-2.2565,-2.2393,-2.2393,-2.2393,0,0,-2.2105,-2.2116,-2.2143,-2.2188,-2.2202,-2.2245,-2.219,-2.2238,-2.227,-2.2229,-2.2292,-2.2298,-2.232,-2.2396,-2.2429,-2.2405,-2.2552,-2.2504,-2.2512,-2.2516,-2.2559,-2.2575,-2.2589,-2.2398,-2.2397,-2.2397,0,0,-2.2213,-2.2226,-2.2284,-2.23,-2.2322,-2.2319,-2.2333,-2.2348,-2.2351,-2.2414,-2.2384,-2.2421,-2.2487,-2.2504,-2.2522,-2.2635,-2.2611,-2.2647,-2.2712,-2.2756,-2.277,-2.2782,-2.2823,-2.2838,-2.2656,-2.2656,-2.2657,0,-2.227,-2.2334,-2.2317,-2.2368,-2.2388,-2.2352,-2.2411,-2.2427,-2.246,-2.2475,-2.2446,-2.2527,-2.254,-2.2619,-2.2647,-2.2661,-2.2677,-2.2646,-2.2769,-2.2781,-2.2792,-2.2831,-2.2847,-2.2661,-2.266,-2.266,-2.2659,0,-2.2402,-2.2447,-2.2492,-2.2524,-2.2549,-2.2604,-2.2596,-2.2623,-2.2609,-2.2609,-2.2673,-2.2686,-2.2723,-2.2741,-2.2727,-2.2818,-2.2802,-2.2772,-2.2721,-2.2813,-2.285,-2.2865,-2.2667,-2.2665,-2.2664,-2.2663,0,0,-2.2553,-2.2574,-2.2591,-2.2606,-2.2627,-2.2661,-2.2714,-2.275,-2.2774,-2.2797,-2.2842,-2.2897,-2.2869,-2.2889,-2.2877,-2.2915,-2.3006,-2.288,-2.288,-2.2904,-2.3107,-2.3132,-2.3149,-2.2989,-2.2992,-2.2994,-2.3106,0,-2.2663,-2.2754,-2.2741,-2.2829,-2.2871,-2.2836,-2.2882,-2.29,-2.2901,-2.2936,-2.2936,-2.2977,-2.2936,-2.2948,-2.2984,-2.2987,-2.3047,-2.2978,-2.3031,-2.3033,-2.3028,-2.3169,-2.3194,-2.33,-2.312,-2.3123,-2.3124,0,-2.2804,-2.2832,-2.2925,-2.2939,-2.2956,-2.2998,-2.303,-2.3064,-2.3083,-2.3081,-2.3103,-2.3083,-2.3136,-2.3083,-2.3156,-2.311,-2.313,-2.3134,-2.3138,-2.3144,-2.3086,-2.318,-2.3333,-2.3349,-2.3147,-2.3145,-2.3143,0,-2.2906,-2.2967,-2.3031,-2.3044,-2.3062,-2.3092,-2.3101,-2.3117,-2.314,-2.3167,-2.3182,-2.3215,-2.3234,-2.326,-2.325,-2.3213,-2.3325,-2.3272,-2.3326,-2.3326,-2.3353,-2.3351,-2.3513,-2.3363,-2.3363,-2.3362,-2.3362,0,-2.3032,-2.309,-2.3077,-2.3116,-2.318,-2.3163,-2.3228,-2.3232,-2.3247,-2.3286,-2.3258,-2.3295,-2.3279,-2.3316,-2.3308,-2.337,-2.3378,-2.3378,-2.3376,-2.3382,-2.3382,-2.3396,-2.3389,-2.3366,-2.3366,-2.3365,-2.3364,0,-2.3158,-2.3151,-2.3218,-2.3229,-2.3233,-2.3281,-2.329,-2.3327,-2.3325,-2.3375,-2.3386,-2.3383,-2.3424,-2.3416,-2.3462,-2.3457,-2.3535,-2.3522,-2.3528,-2.3526,-2.3581,-2.3577,-2.3758,-2.3782,-2.3616,-2.3617,-2.3618,0,-2.3239,-2.3283,-2.3299,-2.3323,-2.3335,-2.3374,-2.3397,-2.3381,-2.3406,-2.3431,-2.3465,-2.3504,-2.3534,-2.3602,-2.3604,-2.3638,-2.3628,-2.3689,-2.3633,-2.3638,-2.363,-2.3629,-2.3633,-2.3701,-2.3703,-2.3704,-2.3706,0,-2.3385,-2.3379,-2.3413,-2.3446,-2.3474,-2.3499,-2.3521,-2.3543,-2.3529,-2.3558,-2.36,-2.3623,-2.367,-2.3709,-2.3741,-2.375,-2.3726,-2.3723,-2.3737,-2.3745,-2.3747,-2.3748,-2.356,-2.3719,-2.3718,-2.3717,-2.3716,-2.3716,-2.3492,-2.353,-2.3547,-2.3586,-2.36,-2.3622,-2.3657,-2.3659,-2.3693,-2.373,-2.3718,-2.3766,-2.3784,-2.3824,-2.3837,-2.3874,-2.3851,-2.3872,-2.3877,-2.3883,-2.3891,-2.374,-2.3879,-2.3879,-2.3879,-2.3878,-2.3878,0,-2.3638,-2.3646,-2.3682,-2.3714,-2.3744,-2.3718,-2.3741,-2.3768,-2.3811,-2.3829,-2.3859,-2.3907,-2.3945,-2.3949,-2.3984,-2.4013,-2.4003,-2.4023,-2.4022,-2.4024,-2.3908,-2.3893,-2.4031,-2.4031,-2.4031,-2.4031,-2.4031,-2.4031,-2.3717,-2.378,-2.3776,-2.3845,-2.3853,-2.39,-2.3916,-2.3935,-2.395,-2.4005,-2.4036,-2.4038,-2.405,-2.4086,-2.4119,-2.4119,-2.4134,-2.4159,-2.4155,-2.4048,-2.4032,-2.4018,-2.4003,-2.4162,-2.4162,-2.4268,-2.4269,-2.427]},{"header":{"parameterUnit":"m.s-1","parameterCategory":1,"la1":30.2991,"la2":30.254,"lo1":-89.0895,"lo2":-89.0444,"dy":0.0017,"dx":0.0017,"nx":28,"ny":28,"refTime":"2024-12-06T03:00:00:Z","depth":0,"parameterNumber":3,"parameterNumberName":"V-component_of_WINDS"},"data":[0,0,0,0,0,0,0,0,0,0,0,0,0,0,0,0,0,0,0,0,0,0,0,0,0,0,0,0,0,0,0,0,0,0,0,0,0,0,0,0,0,0,0,0,0,0,0,0,0,0,0,0,0,0,0,0,0,0,-6.5,-6.5,0,-6.5066,-6.5066,-6.5067,-6.4998,-6.4995,-6.4993,-6.499,-6.5052,-6.5056,-6.506,0,0,0,0,0,0,0,0,0,0,0,0,0,-6.4809,-6.4812,-6.5,-6.5,-6.5001,-6.5065,-6.5066,-6.5067,-6.4998,-6.4995,-6.4992,-6.4989,-6.5051,-6.5056,-6.506,0,0,0,0,0,0,0,0,0,0,0,0,0,-6.4885,-6.4814,-6.4999,-6.4975,-6.4973,-6.5065,-6.5066,-6.5067,-6.4999,-6.4995,-6.4991,-6.4987,-6.5049,-6.5055,-6.5061,-6.5179,0,0,-6.508,-6.5083,0,0,0,0,0,0,0,0,-6.488,-6.4892,-6.4978,-6.4977,-6.4975,-6.502,-6.5022,-6.5105,-6.5,-6.4989,-6.499,-6.4985,-6.5044,-6.505,-6.5071,-6.5182,-6.5185,-6.5081,-6.5084,-6.5087,-6.5089,0,0,0,0,0,0,0,-6.4875,-6.4888,-6.5025,-6.4979,-6.4977,-6.4958,-6.4965,-6.5037,-6.5038,-6.499,-6.4985,-6.4994,-6.5043,-6.5066,-6.5072,-6.5186,-6.508,-6.5086,-6.509,-6.5092,-6.5396,-6.54,0,0,0,0,0,0,-6.4873,-6.4884,-6.5023,-6.5027,-6.4917,-6.4965,-6.4972,-6.5009,-6.5037,-6.5037,-6.4997,-6.499,-6.5057,-6.5065,-6.5074,-6.5214,-6.5087,-6.5093,-6.5096,-6.5391,-6.5397,-6.5401,0,0,0,0,0,0,-6.487,-6.4887,-6.5021,-6.4955,-6.497,-6.4973,-6.5015,-6.5013,-6.5036,-6.5043,-6.5042,-6.5021,-6.5054,-6.5065,-6.5154,-6.5215,-6.5096,-6.5101,-6.5386,-6.5393,-6.5399,-6.5495,0,0,0,0,0,0,-6.4864,-6.4886,-6.4932,-6.4956,-6.4974,-6.5101,-6.5018,-6.5017,-6.5047,-6.5039,-6.5065,-6.5065,-6.5052,-6.5145,-6.516,-6.5222,-6.5106,-6.5381,-6.5389,-6.5397,-6.5487,-6.5504,-6.5519,0,0,0,0,0,-6.4858,-6.4955,-6.4935,-6.4952,-6.5032,-6.5105,-6.5115,-6.5099,-6.5052,-6.5098,-6.5102,-6.5064,-6.5206,-6.5155,-6.5171,-6.5235,-6.5377,-6.5387,-6.5396,-6.5479,-6.5501,-6.5519,0,0,0,0,0,0,-6.4935,-6.4958,-6.4935,-6.5044,-6.5073,-6.5093,-6.515,-6.5123,-6.5165,-6.5155,-6.5132,-6.5138,-6.5232,-6.5242,-6.5184,-6.5351,-6.5283,-6.5297,-6.5341,-6.5361,-6.5378,-6.5373,-6.5111,0,0,0,0,0,-6.4966,-6.5025,-6.504,-6.5134,-6.515,-6.5148,-6.5179,-6.5165,-6.5193,-6.5205,-6.5216,-6.5244,-6.5294,-6.5328,-6.5375,-6.5487,-6.5492,-6.554,-6.5556,-6.5569,-6.5582,-6.5641,-6.5663,-6.5433,-6.5433,-6.5433,0,0,-6.5028,-6.5047,-6.5085,-6.515,-6.5171,-6.5232,-6.5159,-6.5225,-6.5269,-6.5214,-6.5299,-6.5308,-6.5337,-6.5439,-6.5483,-6.545,-6.5646,-6.5582,-6.5593,-6.5597,-6.5654,-6.5675,-6.5695,-6.544,-6.5439,-6.5438,0,0,-6.5172,-6.5193,-6.5274,-6.5297,-6.5331,-6.5328,-6.5348,-6.5373,-6.5377,-6.5462,-6.5422,-6.5473,-6.5561,-6.5584,-6.5607,-6.576,-6.5726,-6.5775,-6.5861,-6.592,-6.5938,-6.5954,-6.6008,-6.6028,-6.5787,-6.5788,-6.5788,0,-6.5244,-6.5335,-6.5318,-6.5388,-6.5418,-6.5372,-6.5453,-6.5476,-6.5522,-6.5543,-6.5505,-6.5615,-6.5631,-6.5737,-6.5775,-6.5795,-6.5815,-6.5773,-6.5937,-6.5953,-6.5967,-6.6019,-6.604,-6.5793,-6.5793,-6.5792,-6.5791,0,-6.5422,-6.5486,-6.5547,-6.5596,-6.5631,-6.5707,-6.5699,-6.5737,-6.572,-6.5721,-6.5808,-6.5826,-6.5876,-6.59,-6.5882,-6.6003,-6.5981,-6.5941,-6.5873,-6.5995,-6.6043,-6.6063,-6.5802,-6.58,-6.5798,-6.5796,0,0,-6.5617,-6.5657,-6.5679,-6.5701,-6.5735,-6.5783,-6.5855,-6.5906,-6.5939,-6.5972,-6.6031,-6.6107,-6.607,-6.6096,-6.608,-6.6132,-6.6252,-6.6085,-6.6085,-6.6115,-6.6386,-6.6417,-6.644,-6.623,-6.6234,-6.6237,-6.6384,0,-6.5763,-6.5891,-6.5878,-6.5999,-6.6057,-6.6015,-6.6077,-6.6104,-6.6107,-6.6155,-6.6157,-6.6212,-6.6159,-6.6174,-6.6223,-6.6227,-6.6306,-6.6216,-6.6284,-6.6286,-6.6279,-6.6465,-6.6498,-6.6636,-6.6402,-6.6405,-6.6408,0,-6.595,-6.5992,-6.612,-6.6145,-6.6169,-6.6226,-6.6272,-6.6319,-6.6347,-6.6346,-6.6376,-6.6351,-6.6422,-6.6353,-6.6449,-6.6389,-6.6415,-6.6421,-6.6426,-6.6432,-6.6355,-6.6476,-6.668,-6.6701,-6.6437,-6.6435,-6.6433,0,-6.608,-6.6168,-6.6256,-6.6276,-6.6308,-6.6349,-6.6363,-6.6388,-6.642,-6.6459,-6.6479,-6.6525,-6.655,-6.6586,-6.6574,-6.6524,-6.6673,-6.6602,-6.6673,-6.6673,-6.6706,-6.6704,-6.6917,-6.6723,-6.6723,-6.6722,-6.6722,0,-6.6244,-6.6323,-6.6315,-6.637,-6.6457,-6.644,-6.6527,-6.6536,-6.6558,-6.6612,-6.6577,-6.6628,-6.6609,-6.6658,-6.6649,-6.673,-6.6742,-6.6742,-6.6738,-6.6745,-6.6745,-6.6763,-6.6753,-6.6728,-6.6727,-6.6725,-6.6725,0,-6.6404,-6.6402,-6.6495,-6.6518,-6.6525,-6.6589,-6.6608,-6.6658,-6.6658,-6.6726,-6.6741,-6.6741,-6.6798,-6.6789,-6.6851,-6.6844,-6.6946,-6.6931,-6.6938,-6.6934,-6.7005,-6.6999,-6.7236,-6.7267,-6.7053,-6.7055,-6.7057,0,-6.6509,-6.657,-6.66,-6.6634,-6.6653,-6.6709,-6.6741,-6.6726,-6.6761,-6.6799,-6.6844,-6.6897,-6.6939,-6.7031,-6.7035,-6.7082,-6.7067,-6.7147,-6.7074,-6.7079,-6.7069,-6.7066,-6.7072,-6.7162,-6.7165,-6.7167,-6.7168,0,-6.6696,-6.6692,-6.6741,-6.6791,-6.6831,-6.6869,-6.6902,-6.6932,-6.692,-6.6961,-6.7019,-6.7052,-6.7115,-6.7169,-6.7213,-6.7225,-6.7195,-6.7191,-6.721,-6.7218,-6.722,-6.722,-6.6978,-6.7186,-6.7184,-6.7183,-6.7182,-6.7181,-6.6832,-6.6884,-6.6914,-6.697,-6.6994,-6.7026,-6.7075,-6.7082,-6.7131,-6.7183,-6.7171,-6.7236,-6.7262,-6.7319,-6.7336,-6.7386,-6.7357,-6.7384,-6.7391,-6.7398,-6.7407,-6.7212,-6.7394,-6.7393,-6.7393,-6.7393,-6.7392,0,-6.7017,-6.7034,-6.7086,-6.7136,-6.718,-6.7149,-6.7184,-6.7222,-6.7281,-6.7309,-6.7352,-6.7419,-6.747,-6.7479,-6.7527,-6.7565,-6.7552,-6.7578,-6.7576,-6.7579,-6.743,-6.7409,-6.7588,-6.7588,-6.7588,-6.7588,-6.7588,-6.7588,-6.7119,-6.7206,-6.7205,-6.7303,-6.7319,-6.7385,-6.7408,-6.7437,-6.746,-6.7536,-6.758,-6.7586,-6.7605,-6.7655,-6.77,-6.7701,-6.7721,-6.7753,-6.7748,-6.7609,-6.7589,-6.7571,-6.7551,-6.7757,-6.7757,-6.7893,-6.7894,-6.7895]}]]